When you browse on this site, cookies collect data to enhance your experience and personalize the content and advertising you see.
Visit our Privacy Policy to learn more. By continuing to use the site, you agree to this use of cookies and data.
  • In Schweiz
  • Länderverzeichnis
  • Für 7 Tage
  • Wassertemperatur
  • Satellitenkarten
  • Wetterkarte
  • Widgets
  • user-avatar
    Anmelden

    Stündliche Wetter Lankaran

    Heute, 22 Mai, Mittwoch

    Zeit Temperatur Niederschläge Wind Luftdruck Luftfeuchtigkeit
    00:00 +7°C° 0 mm 0 m/S 636 mmHg 69%
    01:00 +7°C° 0 mm 0 m/S 636 mmHg 70%
    02:00 +6°C° 0 mm 0 m/S 635 mmHg 70%
    03:00 +6°C° 0 mm 0 m/S 635 mmHg 71%
    04:00 +7°C° 0 mm 0 m/S 635 mmHg 68%
    05:00 +8°C° 0 mm 0 m/S 636 mmHg 66%
    06:00 +9°C° 0 mm 0 m/S 636 mmHg 63%
    07:00 +12°C° 0 mm 1 m/S 636 mmHg 58%
    08:00 +13°C° 0 mm 1 m/S 637 mmHg 53%
    09:00 +15°C° 0 mm 1 m/S 637 mmHg 48%
    10:00 +16°C° 0 mm 2 m/S 637 mmHg 48%
    11:00 +16°C° 0 mm 2 m/S 637 mmHg 48%
    12:00 +17°C° 0 mm 3 m/S 637 mmHg 47%
    13:00 +17°C° 0 mm 3 m/S 637 mmHg 48%
    14:00 +18°C° 0 mm 3 m/S 636 mmHg 49%
    15:00 +18°C° 0 mm 3 m/S 636 mmHg 50%
    16:00 +17°C° 0 mm 2 m/S 635 mmHg 54%
    17:00 +16°C° 0 mm 2 m/S 635 mmHg 59%
    18:00 +15°C° 0 mm 2 m/S 634 mmHg 63%
    19:00 +14°C° 0 mm 2 m/S 634 mmHg 68%
    20:00 +12°C° 0 mm 1 m/S 634 mmHg 72%
    21:00 +11°C° 0 mm 1 m/S 633 mmHg 77%
    22:00 +11°C° 0 mm 1 m/S 633 mmHg 77%
    23:00 +11°C° 0 mm 1 m/S 633 mmHg 78%

    Morgen, 23 Mai, Donnerstag

    Zeit Temperatur Niederschläge Wind Luftdruck Luftfeuchtigkeit
    00:00 +10°C° 0 mm 2 m/S 632 mmHg 79%
    01:00 +9°C° 0 mm 2 m/S 632 mmHg 78%
    02:00 +9°C° 0 mm 2 m/S 632 mmHg 77%
    03:00 +9°C° 0 mm 2 m/S 632 mmHg 76%
    04:00 +11°C° 0 mm 1 m/S 633 mmHg 71%
    05:00 +12°C° 0 mm 1 m/S 633 mmHg 66%
    06:00 +14°C° 0 mm 1 m/S 634 mmHg 61%
    07:00 +15°C° 0 mm 1 m/S 634 mmHg 57%
    08:00 +17°C° 0 mm 2 m/S 635 mmHg 53%
    09:00 +18°C° 0 mm 2 m/S 635 mmHg 49%
    10:00 +19°C° 0 mm 3 m/S 635 mmHg 48%
    11:00 +20°C° 0 mm 3 m/S 635 mmHg 47%
    12:00 +20°C° 0 mm 3 m/S 635 mmHg 46%
    13:00 +20°C° 0 mm 3 m/S 634 mmHg 47%
    14:00 +20°C° 0 mm 3 m/S 634 mmHg 47%
    15:00 +20°C° 0 mm 4 m/S 633 mmHg 48%
    16:00 +19°C° 0 mm 3 m/S 633 mmHg 54%
    17:00 +17°C° 0 mm 3 m/S 632 mmHg 61%
    18:00 +16°C° 0 mm 2 m/S 632 mmHg 67%
    19:00 +14°C° 0.1 mm 2 m/S 632 mmHg 71%
    20:00 +13°C° 0.1 mm 1 m/S 632 mmHg 75%
    21:00 +12°C° 0.1 mm 1 m/S 632 mmHg 79%
    22:00 +11°C° 0 mm 1 m/S 632 mmHg 79%
    23:00 +11°C° 0 mm 1 m/S 632 mmHg 78%

    übermorgen, 24 Mai, Freitag

    Zeit Temperatur Niederschläge Wind Luftdruck Luftfeuchtigkeit
    00:00 +11°C° 0 mm 1 m/S 632 mmHg 78%
    01:00 +11°C° 0 mm 1 m/S 632 mmHg 79%
    02:00 +11°C° 0 mm 1 m/S 632 mmHg 79%
    03:00 +11°C° 0 mm 1 m/S 631 mmHg 80%
    04:00 +12°C° 0 mm 1 m/S 632 mmHg 77%
    05:00 +13°C° 0 mm 1 m/S 633 mmHg 73%
    06:00 +14°C° 0 mm 1 m/S 634 mmHg 70%
    07:00 +16°C° 0 mm 1 m/S 634 mmHg 65%
    08:00 +17°C° 0 mm 2 m/S 635 mmHg 60%
    09:00 +19°C° 0 mm 2 m/S 635 mmHg 55%
    10:00 +19°C° 0 mm 2 m/S 635 mmHg 53%
    11:00 +20°C° 0 mm 3 m/S 635 mmHg 52%
    12:00 +21°C° 0 mm 3 m/S 635 mmHg 50%
    13:00 +21°C° 0 mm 3 m/S 635 mmHg 50%
    14:00 +21°C° 0 mm 3 m/S 635 mmHg 50%
    15:00 +21°C° 0 mm 2 m/S 635 mmHg 50%
    16:00 +20°C° 0.1 mm 2 m/S 634 mmHg 56%
    17:00 +18°C° 0.1 mm 2 m/S 634 mmHg 62%
    18:00 +17°C° 0.1 mm 2 m/S 634 mmHg 69%
    19:00 +16°C° 0 mm 2 m/S 634 mmHg 73%
    20:00 +15°C° 0 mm 1 m/S 634 mmHg 78%
    21:00 +14°C° 0 mm 1 m/S 634 mmHg 82%
    22:00 +14°C° 0 mm 1 m/S 634 mmHg 80%
    23:00 +14°C° 0 mm 1 m/S 634 mmHg 78%

    25 Mai, Samstag

    Zeit Temperatur Niederschläge Wind Luftdruck Luftfeuchtigkeit
    00:00 +14°C° 0 mm 1 m/S 634 mmHg 76%
    01:00 +14°C° 0 mm 1 m/S 634 mmHg 74%
    02:00 +13°C° 0 mm 1 m/S 634 mmHg 72%
    03:00 +13°C° 0 mm 2 m/S 634 mmHg 71%
    04:00 +14°C° 0 mm 1 m/S 634 mmHg 66%
    05:00 +15°C° 0 mm 1 m/S 635 mmHg 62%
    06:00 +18°C° 0 mm 1 m/S 636 mmHg 57%
    07:00 +20°C° 0 mm 1 m/S 636 mmHg 50%
    08:00 +21°C° 0 mm 2 m/S 637 mmHg 43%
    09:00 +24°C° 0 mm 2 m/S 638 mmHg 36%
    10:00 +25°C° 0 mm 2 m/S 637 mmHg 35%
    11:00 +26°C° 0 mm 2 m/S 637 mmHg 33%
    12:00 +27°C° 0 mm 2 m/S 637 mmHg 32%
    13:00 +27°C° 0 mm 2 m/S 637 mmHg 32%
    14:00 +27°C° 0 mm 2 m/S 636 mmHg 32%
    15:00 +27°C° 0 mm 2 m/S 636 mmHg 32%
    16:00 +26°C° 0 mm 2 m/S 635 mmHg 38%
    17:00 +24°C° 0 mm 1 m/S 635 mmHg 44%
    18:00 +23°C° 0 mm 1 m/S 634 mmHg 50%
    19:00 +21°C° 0 mm 2 m/S 634 mmHg 43%
    20:00 +20°C° 0 mm 2 m/S 634 mmHg 37%
    21:00 +19°C° 0 mm 2 m/S 634 mmHg 30%
    22:00 +19°C° 0 mm 3 m/S 634 mmHg 29%
    23:00 +19°C° 0 mm 3 m/S 634 mmHg 29%

    26 Mai, Sonntag

    Zeit Temperatur Niederschläge Wind Luftdruck Luftfeuchtigkeit
    00:00 +19°C° 0 mm 3 m/S 633 mmHg 29%
    01:00 +18°C° 0 mm 3 m/S 633 mmHg 31%
    02:00 +18°C° 0 mm 3 m/S 633 mmHg 33%
    03:00 +17°C° 0 mm 3 m/S 632 mmHg 36%
    04:00 +18°C° 0.1 mm 3 m/S 633 mmHg 36%
    05:00 +19°C° 0.1 mm 3 m/S 633 mmHg 36%
    06:00 +19°C° 0.1 mm 2 m/S 633 mmHg 37%
    07:00 +21°C° 0 mm 3 m/S 634 mmHg 34%
    08:00 +25°C° 0 mm 3 m/S 635 mmHg 31%
    09:00 +27°C° 0 mm 3 m/S 636 mmHg 28%
    10:00 +27°C° 0 mm 3 m/S 635 mmHg 28%
    11:00 +28°C° 0 mm 3 m/S 635 mmHg 27%
    12:00 +29°C° 0 mm 3 m/S 635 mmHg 27%
    13:00 +28°C° 0 mm 3 m/S 635 mmHg 28%
    14:00 +28°C° 0 mm 3 m/S 634 mmHg 29%
    15:00 +28°C° 0 mm 2 m/S 634 mmHg 31%
    16:00 +26°C° 0 mm 2 m/S 633 mmHg 37%
    17:00 +23°C° 0 mm 2 m/S 633 mmHg 44%
    18:00 +20°C° 0 mm 2 m/S 633 mmHg 51%
    19:00 +18°C° 0 mm 2 m/S 632 mmHg 61%
    20:00 +16°C° 0 mm 2 m/S 632 mmHg 71%
    21:00 +14°C° 0 mm 2 m/S 632 mmHg 81%
    22:00 +13°C° 0 mm 2 m/S 632 mmHg 83%
    23:00 +13°C° 0 mm 2 m/S 632 mmHg 84%

    27 Mai, Montag

    Zeit Temperatur Niederschläge Wind Luftdruck Luftfeuchtigkeit
    00:00 +12°C° 0 mm 2 m/S 632 mmHg 86%
    01:00 +12°C° 0 mm 1 m/S 632 mmHg 87%
    02:00 +12°C° 0 mm 1 m/S 632 mmHg 89%
    03:00 +11°C° 0 mm 1 m/S 633 mmHg 90%
    04:00 +12°C° 0 mm 1 m/S 633 mmHg 87%
    05:00 +13°C° 0 mm 1 m/S 634 mmHg 85%
    06:00 +14°C° 0 mm 2 m/S 635 mmHg 82%
    07:00 +15°C° 0 mm 2 m/S 635 mmHg 76%
    08:00 +17°C° 0 mm 3 m/S 636 mmHg 69%
    09:00 +18°C° 0 mm 3 m/S 636 mmHg 62%
    10:00 +19°C° 0 mm 4 m/S 637 mmHg 59%
    11:00 +20°C° 0 mm 4 m/S 637 mmHg 55%
    12:00 +21°C° 0 mm 4 m/S 637 mmHg 52%
    13:00 +20°C° 0 mm 4 m/S 636 mmHg 54%
    14:00 +20°C° 0 mm 4 m/S 636 mmHg 56%
    15:00 +19°C° 0 mm 5 m/S 636 mmHg 58%
    16:00 +18°C° 0 mm 4 m/S 635 mmHg 61%
    17:00 +17°C° 0 mm 3 m/S 635 mmHg 64%
    18:00 +16°C° 0 mm 3 m/S 635 mmHg 67%
    19:00 +14°C° 0 mm 2 m/S 635 mmHg 71%
    20:00 +13°C° 0 mm 2 m/S 635 mmHg 76%
    21:00 +12°C° 0 mm 1 m/S 635 mmHg 80%
    22:00 +12°C° 0 mm 1 m/S 635 mmHg 80%
    23:00 +11°C° 0 mm 1 m/S 635 mmHg 79%
    Mehr zeigen